TimeEDT,TemperatureF,Dew PointF,Humidity,Sea Level PressureIn,VisibilityMPH,Wind Direction,Wind SpeedMPH,Gust SpeedMPH,PrecipitationIn,Events,Conditions,WindDirDegrees,DateUTC
12:52 AM,50.0,41.0,71,30.00,10.0,West,5.8,-,N/A,,Clear,280,2013-04-09 04:52:00
1:52 AM,50.0,39.9,68,30.01,10.0,NNW,5.8,-,N/A,,Scattered Clouds,330,2013-04-09 05:52:00
2:52 AM,46.9,39.0,74,30.03,10.0,Calm,Calm,-,N/A,,Clear,0,2013-04-09 06:52:00
3:52 AM,46.0,39.9,79,30.03,10.0,NNE,4.6,-,N/A,,Overcast,30,2013-04-09 07:52:00
4:52 AM,45.0,39.9,82,30.05,10.0,NE,3.5,-,N/A,,Overcast,50,2013-04-09 08:52:00
5:52 AM,45.0,39.9,82,30.06,10.0,ENE,5.8,-,N/A,,Overcast,60,2013-04-09 09:52:00
6:52 AM,45.0,39.9,82,30.07,8.0,ENE,6.9,-,N/A,,Overcast,70,2013-04-09 10:52:00
7:52 AM,46.0,39.9,79,30.07,6.0,East,5.8,-,N/A,,Haze,100,2013-04-09 11:52:00
8:52 AM,48.0,41.0,77,30.07,7.0,East,10.4,-,N/A,,Mostly Cloudy,100,2013-04-09 12:52:00
9:52 AM,48.9,42.1,77,30.05,7.0,East,13.8,-,N/A,,Overcast,100,2013-04-09 13:52:00
10:52 AM,52.0,42.1,69,30.05,8.0,ESE,9.2,-,N/A,,Overcast,120,2013-04-09 14:52:00
11:52 AM,55.0,43.0,64,30.03,9.0,East,6.9,-,N/A,,Mostly Cloudy,100,2013-04-09 15:52:00
12:52 PM,57.9,44.1,60,29.99,10.0,ENE,11.5,-,N/A,,Overcast,70,2013-04-09 16:52:00
1:52 PM,60.1,44.1,55,29.95,10.0,ESE,9.2,-,N/A,,Partly Cloudy,110,2013-04-09 17:52:00
2:52 PM,64.9,44.1,47,29.91,10.0,ENE,11.5,-,N/A,,Clear,70,2013-04-09 18:52:00
3:52 PM,64.0,45.0,50,29.88,10.0,ENE,10.4,-,N/A,,Mostly Cloudy,60,2013-04-09 19:52:00
4:52 PM,63.0,44.1,50,29.86,10.0,East,6.9,-,N/A,,Scattered Clouds,80,2013-04-09 20:52:00
5:52 PM,61.0,44.1,54,29.85,10.0,ENE,5.8,-,N/A,,Mostly Cloudy,60,2013-04-09 21:52:00
6:52 PM,57.0,42.1,57,29.88,10.0,NNE,8.1,-,N/A,,Overcast,20,2013-04-09 22:52:00
7:52 PM,52.0,41.0,66,29.90,10.0,ENE,6.9,-,N/A,,Overcast,70,2013-04-09 23:52:00
8:52 PM,50.0,41.0,71,29.90,10.0,SE,4.6,-,N/A,,Mostly Cloudy,130,2013-04-10 00:52:00
9:52 PM,50.0,41.0,71,29.92,10.0,SSE,4.6,-,N/A,,Overcast,150,2013-04-10 01:52:00
10:52 PM,51.1,42.1,71,29.94,10.0,NNE,11.5,-,0.00,,Overcast,20,2013-04-10 02:52:00
11:52 PM,48.0,44.1,86,29.95,6.0,NE,5.8,-,0.00,,Overcast,50,2013-04-10 03:52:00